Location: Augirein
(42.9320°N, 0.9181°E)
Time: 21:02:11
(UTC+00:00)

Tiangong - Pass Details

Date: 27 September 2021
Orbit: 382 x 385 km, 41.5° (Epoch: 18 October)

Event Time Altitude Azimuth Distance (km) Brightness Sun altitude
Exits shadow 04:30:40 17° 197° (SSW) 1,064 3.0 -15.1°
Maximum altitude 04:32:11 24° 156° (SSE) 841 2.9 -14.8°
Drops below altitude 10° 04:34:48 10° 100° (E) 1,395 5.0 -14.4°
Sets 04:37:11 0° 85° (E) 2,282 6.9 -13.9°
